Thomaston, GA

9:20 AM EDT on August 22, 2017 (GMT -0400)
Thomaston-Upson County

Weather History for KOPN - November, 2013

Change the Weather History Date:

Thursday, November 21, 2013

  Actual Average (KFFC) Record (KFFC)
Temperature  
Mean Temperature 54 °F -  
Max Temperature 60 °F 60 °F 78 °F (2011)
Min Temperature 48 °F 36 °F 21 °F (2000)
Degree Days  
Heating Degree Days 11    
Growing Degree Days 4 (Base 50)    
Moisture  
Dew Point 41 °F    
Average Humidity 62    
Maximum Humidity 72    
Minimum Humidity 52    
Precipitation  
Precipitation 0.00 in - - ()
Sea Level Pressure  
Sea Level Pressure 30.34 in    
Wind  
Wind Speed 7 mph (ENE)    
Max Wind Speed 10 mph    
Max Gust Speed -    
Visibility 10 miles    
Events Rain    
Averages and records for this station are not official NWS values.
T = Trace of Precipitation, MM = Missing Value Source: NWS Daily Summary

Daily Weather History Graph

Daily Weather History Graph

Search for Another Location

Airport or City:

Trip Planner

Search our weather history database for the weather conditions in past years. The results will help you decide how hot, cold, wet, or windy it might be!

Date:

Astronomy

Nov. 21, 2013 Rise Set
Actual Time 7:13 AM EST 5:32 PM EST
Civil Twilight 6:46 AM EST 5:59 PM EST
Nautical Twilight 6:16 AM EST 6:29 PM EST
Astronomical Twilight 5:47 AM EST 6:58 PM EST
Moon 9:06 PM EST (11/21) 10:20 AM EST (11/21)
Length of Visible Light 11h 12m
Length of Day
10h 19m
Waning Gibbous, 85% of the Moon is Illuminated
Nov 21
Waning Gibbous
Nov 25
Last Quarter
Dec 2
New
Dec 9
First Quarter
Dec 17
Full

Hourly Weather History & Observations

Time (EST) Temp. Dew Point Humidity Pressure Visibility Wind Dir Wind Speed Gust Speed Precip Events Conditions
12:15 AM 50.0 °F 33.8 °F 54% 30.32 in 10.0 mi ENE 9.2 mph - N/A   Overcast
12:35 AM 50.0 °F 33.8 °F 54% 30.31 in 10.0 mi ENE 6.9 mph - N/A   Overcast
12:55 AM 50.0 °F 33.8 °F 54% 30.31 in 10.0 mi East 8.1 mph - N/A   Overcast
1:15 AM 50.0 °F 33.8 °F 54% 30.31 in 10.0 mi ENE 6.9 mph - N/A   Overcast
1:35 AM 50.0 °F 35.6 °F 58% 30.32 in 10.0 mi East 3.5 mph - N/A Rain Heavy Rain
1:55 AM 48.2 °F 37.4 °F 66% 30.32 in 10.0 mi ENE 6.9 mph - N/A   Light Drizzle
2:15 AM 48.2 °F 37.4 °F 66% 30.32 in 10.0 mi NE 6.9 mph - N/A   Overcast
2:35 AM 48.2 °F 37.4 °F 66% 30.32 in 10.0 mi ENE 5.8 mph - N/A   Overcast
2:55 AM 48.2 °F 37.4 °F 66% 30.32 in 10.0 mi ENE 6.9 mph - N/A   Overcast
3:15 AM 48.2 °F 37.4 °F 66% 30.33 in 10.0 mi ENE 5.8 mph - N/A   Overcast
3:35 AM 48.2 °F 37.4 °F 66% 30.33 in 10.0 mi ENE 4.6 mph - N/A   Overcast
3:55 AM 50.0 °F 35.6 °F 58% 30.32 in 10.0 mi NE 5.8 mph - N/A   Overcast
4:15 AM 50.0 °F 35.6 °F 58% 30.32 in 10.0 mi ENE 5.8 mph - N/A   Overcast
4:35 AM 50.0 °F 35.6 °F 58% 30.32 in 10.0 mi ENE 4.6 mph - N/A   Overcast
4:55 AM 50.0 °F 35.6 °F 58% 30.32 in 10.0 mi ENE 5.8 mph - N/A   Overcast
5:15 AM 50.0 °F 35.6 °F 58% 30.32 in 10.0 mi East 5.8 mph - N/A   Overcast
5:35 AM 50.0 °F 35.6 °F 58% 30.32 in 10.0 mi ENE 6.9 mph - N/A   Overcast
5:55 AM 50.0 °F 35.6 °F 58% 30.32 in 10.0 mi East 8.1 mph - N/A   Overcast
6:15 AM 50.0 °F 35.6 °F 58% 30.32 in 10.0 mi ENE 6.9 mph - N/A   Overcast
6:35 AM 50.0 °F 35.6 °F 58% 30.33 in 10.0 mi East 6.9 mph - N/A   Overcast
6:55 AM 50.0 °F 35.6 °F 58% 30.34 in 10.0 mi East 5.8 mph - N/A   Overcast
7:15 AM 50.0 °F 35.6 °F 58% 30.34 in 10.0 mi ENE 8.1 mph - N/A   Overcast
7:35 AM 50.0 °F 37.4 °F 62% 30.35 in 10.0 mi ENE 8.1 mph - N/A   Overcast
7:55 AM 50.0 °F 37.4 °F 62% 30.36 in 10.0 mi ENE 5.8 mph - N/A   Overcast
8:15 AM 50.0 °F 37.4 °F 62% 30.36 in 10.0 mi ENE 6.9 mph - N/A   Overcast
8:35 AM 50.0 °F 37.4 °F 62% 30.36 in 10.0 mi East 9.2 mph - N/A   Overcast
8:55 AM 51.8 °F 37.4 °F 58% 30.37 in 10.0 mi East 9.2 mph - N/A   Overcast
9:15 AM 51.8 °F 37.4 °F 58% 30.37 in 10.0 mi ENE 9.2 mph - N/A   Overcast
9:35 AM 51.8 °F 39.2 °F 62% 30.38 in 10.0 mi ENE 9.2 mph - N/A   Overcast
9:55 AM 51.8 °F 39.2 °F 62% 30.39 in 10.0 mi East 6.9 mph - N/A   Overcast
10:15 AM 51.8 °F 41.0 °F 67% 30.39 in 10.0 mi ENE 5.8 mph - N/A   Overcast
10:35 AM 53.6 °F 41.0 °F 62% 30.39 in 10.0 mi East 10.4 mph - N/A   Overcast
10:55 AM 55.4 °F 41.0 °F 58% 30.39 in 10.0 mi East 6.9 mph - N/A   Overcast
11:15 AM 55.4 °F 41.0 °F 58% 30.39 in 10.0 mi ENE 4.6 mph - N/A   Overcast
11:35 AM 55.4 °F 41.0 °F 58% 30.37 in 10.0 mi East 10.4 mph - N/A   Overcast
11:55 AM 55.4 °F 41.0 °F 58% 30.37 in 10.0 mi ENE 8.1 mph - N/A   Overcast
12:15 PM 57.2 °F 41.0 °F 55% 30.36 in 10.0 mi NE 6.9 mph - N/A   Overcast
12:35 PM 57.2 °F 41.0 °F 55% 30.35 in 10.0 mi East 8.1 mph - N/A   Overcast
12:55 PM 57.2 °F 42.8 °F 59% 30.34 in 10.0 mi East 6.9 mph - N/A   Overcast
1:15 PM 59.0 °F 42.8 °F 55% 30.33 in 10.0 mi ESE 8.1 mph - N/A   Overcast
1:35 PM 59.0 °F 42.8 °F 55% 30.33 in 10.0 mi East 6.9 mph - N/A   Overcast
1:55 PM 59.0 °F 42.8 °F 55% 30.33 in 10.0 mi ENE 6.9 mph - N/A   Overcast
2:15 PM 59.0 °F 44.6 °F 59% 30.31 in 10.0 mi East 6.9 mph - N/A   Overcast
2:35 PM 59.0 °F 44.6 °F 59% 30.31 in 10.0 mi East 6.9 mph - N/A   Overcast
2:55 PM 60.8 °F 42.8 °F 52% 30.31 in 10.0 mi East 5.8 mph - N/A   Overcast
3:15 PM 60.8 °F 44.6 °F 55% 30.31 in 10.0 mi East 5.8 mph - N/A   Overcast
3:35 PM 60.8 °F 44.6 °F 55% 30.30 in 10.0 mi East 4.6 mph - N/A   Overcast
3:55 PM 59.0 °F 44.6 °F 59% 30.31 in 10.0 mi ENE 5.8 mph - N/A   Overcast
4:15 PM 59.0 °F 44.6 °F 59% 30.31 in 10.0 mi East 5.8 mph - N/A   Overcast
4:35 PM 59.0 °F 44.6 °F 59% 30.31 in 10.0 mi East 4.6 mph - N/A   Overcast
4:55 PM 59.0 °F 44.6 °F 59% 30.31 in 10.0 mi ENE 5.8 mph - N/A   Overcast
5:15 PM 59.0 °F 44.6 °F 59% 30.31 in 10.0 mi ENE 4.6 mph - N/A   Overcast
5:35 PM 59.0 °F 44.6 °F 59% 30.31 in 10.0 mi East 8.1 mph - N/A   Overcast
5:55 PM 59.0 °F 44.6 °F 59% 30.32 in 10.0 mi East 5.8 mph - N/A   Overcast
6:15 PM 57.2 °F 44.6 °F 63% 30.33 in 10.0 mi ENE 5.8 mph - N/A   Overcast
6:35 PM 57.2 °F 44.6 °F 63% 30.33 in 10.0 mi East 5.8 mph - N/A   Overcast
6:55 PM 55.4 °F 44.6 °F 67% 30.34 in 10.0 mi East 5.8 mph - N/A   Overcast
7:15 PM 55.4 °F 44.6 °F 67% 30.34 in 10.0 mi East 8.1 mph - N/A   Overcast
7:35 PM 55.4 °F 44.6 °F 67% 30.35 in 10.0 mi ENE 5.8 mph - N/A   Overcast
7:55 PM 53.6 °F 44.6 °F 72% 30.35 in 10.0 mi East 6.9 mph - N/A   Overcast
8:15 PM 53.6 °F 44.6 °F 72% 30.35 in 10.0 mi East 6.9 mph - N/A   Mostly Cloudy
8:35 PM 53.6 °F 44.6 °F 72% 30.35 in 10.0 mi East 6.9 mph - N/A   Mostly Cloudy
8:55 PM 53.6 °F 44.6 °F 72% 30.35 in 10.0 mi East 6.9 mph - N/A   Mostly Cloudy
9:15 PM 53.6 °F 44.6 °F 72% 30.35 in 10.0 mi East 6.9 mph - N/A   Scattered Clouds
9:35 PM 53.6 °F 44.6 °F 72% 30.36 in 10.0 mi East 6.9 mph - N/A   Scattered Clouds
9:55 PM 53.6 °F 44.6 °F 72% 30.36 in 10.0 mi ENE 4.6 mph - N/A   Mostly Cloudy
10:15 PM 53.6 °F 44.6 °F 72% 30.36 in 10.0 mi East 4.6 mph - N/A   Overcast
10:35 PM 53.6 °F 44.6 °F 72% 30.36 in 10.0 mi East 6.9 mph - N/A   Overcast
10:55 PM 53.6 °F 44.6 °F 72% 30.36 in 10.0 mi ENE 4.6 mph - N/A   Overcast
11:15 PM 53.6 °F 44.6 °F 72% 30.36 in 10.0 mi ENE 4.6 mph - N/A   Overcast
11:35 PM 53.6 °F 44.6 °F 72% 30.36 in 10.0 mi ENE 4.6 mph - N/A   Overcast
11:55 PM 53.6 °F 44.6 °F 72% 30.36 in 10.0 mi East 6.9 mph - N/A   Overcast